When you browse on this site, cookies collect data to enhance your experience and personalize the content and advertising you see.
Visit our Privacy Policy to learn more. By continuing to use the site, you agree to this use of cookies and data.
  • In Schweiz
  • Länderverzeichnis
  • Für 7 Tage
  • Wassertemperatur
  • Satellitenkarten
  • Wetterkarte
  • Widgets
  • user-avatar
    Anmelden

    Stündliche Wetter Shkoder

    Heute, 23 März, Samstag

    Zeit Temperatur Niederschläge Wind Luftdruck Luftfeuchtigkeit
    00:00 +10°C° 0 mm 4 m/S 746 mmHg 51%
    01:00 +10°C° 0 mm 4 m/S 746 mmHg 52%
    02:00 +8°C° 0 mm 4 m/S 746 mmHg 54%
    03:00 +8°C° 0 mm 4 m/S 745 mmHg 56%
    04:00 +8°C° 0 mm 4 m/S 745 mmHg 57%
    05:00 +8°C° 0 mm 4 m/S 745 mmHg 58%
    06:00 +10°C° 0 mm 3 m/S 745 mmHg 58%
    07:00 +10°C° 0 mm 3 m/S 745 mmHg 59%
    08:00 +12°C° 0 mm 3 m/S 745 mmHg 53%
    09:00 +16°C° 0 mm 3 m/S 745 mmHg 48%
    10:00 +18°C° 0 mm 3 m/S 744 mmHg 42%
    11:00 +19°C° 0 mm 3 m/S 744 mmHg 40%
    12:00 +20°C° 0 mm 2 m/S 744 mmHg 38%
    13:00 +21°C° 0 mm 2 m/S 744 mmHg 36%
    14:00 +21°C° 0 mm 2 m/S 743 mmHg 38%
    15:00 +20°C° 0 mm 2 m/S 743 mmHg 39%
    16:00 +20°C° 0 mm 2 m/S 743 mmHg 41%
    17:00 +19°C° 0 mm 2 m/S 743 mmHg 47%
    18:00 +17°C° 0 mm 2 m/S 743 mmHg 53%
    19:00 +14°C° 0 mm 3 m/S 743 mmHg 59%
    20:00 +14°C° 0 mm 3 m/S 744 mmHg 61%
    21:00 +13°C° 0 mm 3 m/S 744 mmHg 64%
    22:00 +13°C° 0 mm 3 m/S 744 mmHg 66%
    23:00 +12°C° 0 mm 3 m/S 744 mmHg 67%

    Morgen, 24 März, Sonntag

    Zeit Temperatur Niederschläge Wind Luftdruck Luftfeuchtigkeit
    00:00 +11°C° 0 mm 3 m/S 744 mmHg 69%
    01:00 +11°C° 0 mm 3 m/S 744 mmHg 70%
    02:00 +11°C° 0 mm 3 m/S 744 mmHg 68%
    03:00 +10°C° 0 mm 3 m/S 744 mmHg 67%
    04:00 +10°C° 0 mm 3 m/S 744 mmHg 65%
    05:00 +10°C° 0 mm 3 m/S 744 mmHg 63%
    06:00 +11°C° 0 mm 3 m/S 744 mmHg 60%
    07:00 +11°C° 0 mm 3 m/S 744 mmHg 57%
    08:00 +13°C° 0 mm 3 m/S 744 mmHg 49%
    09:00 +16°C° 0 mm 3 m/S 744 mmHg 42%
    10:00 +18°C° 0 mm 2 m/S 744 mmHg 34%
    11:00 +19°C° 0 mm 2 m/S 744 mmHg 32%
    12:00 +20°C° 0 mm 2 m/S 743 mmHg 30%
    13:00 +22°C° 0 mm 1 m/S 743 mmHg 29%
    14:00 +22°C° 0 mm 1 m/S 743 mmHg 31%
    15:00 +20°C° 0 mm 2 m/S 742 mmHg 33%
    16:00 +20°C° 0 mm 2 m/S 742 mmHg 35%
    17:00 +18°C° 0 mm 2 m/S 742 mmHg 41%
    18:00 +18°C° 0 mm 1 m/S 742 mmHg 47%
    19:00 +15°C° 0 mm 1 m/S 742 mmHg 54%
    20:00 +14°C° 0 mm 1 m/S 742 mmHg 53%
    21:00 +14°C° 0 mm 1 m/S 742 mmHg 52%
    22:00 +14°C° 0 mm 1 m/S 742 mmHg 51%
    23:00 +13°C° 0 mm 1 m/S 742 mmHg 51%

    übermorgen, 25 März, Montag

    Zeit Temperatur Niederschläge Wind Luftdruck Luftfeuchtigkeit
    00:00 +13°C° 0 mm 1 m/S 742 mmHg 52%
    01:00 +12°C° 0 mm 1 m/S 741 mmHg 52%
    02:00 +12°C° 0 mm 1 m/S 741 mmHg 53%
    03:00 +12°C° 0 mm 1 m/S 741 mmHg 54%
    04:00 +11°C° 0 mm 1 m/S 741 mmHg 55%
    05:00 +12°C° 0 mm 1 m/S 741 mmHg 56%
    06:00 +12°C° 0 mm 1 m/S 741 mmHg 57%
    07:00 +13°C° 0 mm 1 m/S 740 mmHg 57%
    08:00 +15°C° 0 mm 1 m/S 740 mmHg 54%
    09:00 +16°C° 0 mm 1 m/S 740 mmHg 50%
    10:00 +17°C° 0 mm 2 m/S 740 mmHg 47%
    11:00 +18°C° 0 mm 2 m/S 739 mmHg 46%
    12:00 +18°C° 0 mm 2 m/S 739 mmHg 46%
    13:00 +19°C° 0 mm 3 m/S 738 mmHg 45%
    14:00 +18°C° 0 mm 3 m/S 738 mmHg 48%
    15:00 +18°C° 0 mm 2 m/S 737 mmHg 50%
    16:00 +17°C° 0 mm 2 m/S 737 mmHg 53%
    17:00 +16°C° 0 mm 2 m/S 737 mmHg 61%
    18:00 +14°C° 0 mm 1 m/S 737 mmHg 69%
    19:00 +11°C° 0 mm 0 m/S 737 mmHg 77%
    20:00 +11°C° 0 mm 0 m/S 737 mmHg 79%
    21:00 +12°C° 0 mm 1 m/S 737 mmHg 80%
    22:00 +11°C° 0 mm 1 m/S 737 mmHg 81%
    23:00 +11°C° 0 mm 1 m/S 737 mmHg 81%

    26 März, Dienstag

    Zeit Temperatur Niederschläge Wind Luftdruck Luftfeuchtigkeit
    00:00 +11°C° 0 mm 1 m/S 737 mmHg 81%
    01:00 +10°C° 0 mm 1 m/S 738 mmHg 80%
    02:00 +10°C° 0 mm 1 m/S 738 mmHg 79%
    03:00 +10°C° 0 mm 1 m/S 738 mmHg 78%
    04:00 +9°C° 0 mm 2 m/S 738 mmHg 77%
    05:00 +9°C° 0 mm 3 m/S 739 mmHg 73%
    06:00 +8°C° 0 mm 4 m/S 739 mmHg 69%
    07:00 +9°C° 0 mm 5 m/S 739 mmHg 65%
    08:00 +10°C° 0 mm 5 m/S 740 mmHg 59%
    09:00 +10°C° 0 mm 5 m/S 740 mmHg 52%
    10:00 +12°C° 0 mm 5 m/S 740 mmHg 46%
    11:00 +12°C° 0 mm 5 m/S 740 mmHg 45%
    12:00 +11°C° 0 mm 6 m/S 740 mmHg 45%
    13:00 +11°C° 0 mm 6 m/S 740 mmHg 45%
    14:00 +10°C° 0.2 mm 6 m/S 740 mmHg 49%
    15:00 +9°C° 0.2 mm 6 m/S 740 mmHg 53%
    16:00 +8°C° 0.2 mm 6 m/S 740 mmHg 57%
    17:00 +7°C° 0.1 mm 6 m/S 740 mmHg 58%
    18:00 +7°C° 0.1 mm 6 m/S 741 mmHg 58%
    19:00 +5°C° 0.1 mm 6 m/S 741 mmHg 59%
    20:00 +5°C° 0 mm 7 m/S 741 mmHg 58%
    21:00 +5°C° 0 mm 7 m/S 742 mmHg 57%
    22:00 +4°C° 0 mm 7 m/S 742 mmHg 57%
    23:00 +4°C° 0 mm 7 m/S 742 mmHg 55%

    27 März, Mittwoch

    Zeit Temperatur Niederschläge Wind Luftdruck Luftfeuchtigkeit
    00:00 +4°C° 0 mm 7 m/S 742 mmHg 54%
    01:00 +4°C° 0 mm 6 m/S 742 mmHg 52%
    02:00 +4°C° 0 mm 6 m/S 742 mmHg 51%
    03:00 +4°C° 0 mm 6 m/S 742 mmHg 50%
    04:00 +3°C° 0 mm 6 m/S 742 mmHg 49%
    05:00 +5°C° 0 mm 5 m/S 743 mmHg 47%
    06:00 +5°C° 0 mm 5 m/S 743 mmHg 45%
    07:00 +5°C° 0 mm 5 m/S 744 mmHg 43%
    08:00 +6°C° 0 mm 5 m/S 744 mmHg 39%
    09:00 +8°C° 0 mm 5 m/S 744 mmHg 36%
    10:00 +9°C° 0 mm 6 m/S 744 mmHg 32%
    11:00 +10°C° 0 mm 5 m/S 744 mmHg 31%
    12:00 +12°C° 0 mm 5 m/S 744 mmHg 30%
    13:00 +12°C° 0 mm 5 m/S 744 mmHg 29%
    14:00 +12°C° 0 mm 4 m/S 744 mmHg 30%
    15:00 +12°C° 0 mm 4 m/S 744 mmHg 30%
    16:00 +12°C° 0 mm 4 m/S 744 mmHg 30%
    17:00 +10°C° 0 mm 4 m/S 744 mmHg 35%
    18:00 +8°C° 0 mm 4 m/S 745 mmHg 40%
    19:00 +6°C° 0 mm 4 m/S 745 mmHg 45%
    20:00 +6°C° 0 mm 4 m/S 746 mmHg 47%
    21:00 +5°C° 0 mm 4 m/S 746 mmHg 50%
    22:00 +5°C° 0 mm 3 m/S 746 mmHg 53%
    23:00 +4°C° 0 mm 3 m/S 746 mmHg 54%

    28 März, Donnerstag

    Zeit Temperatur Niederschläge Wind Luftdruck Luftfeuchtigkeit
    00:00 +4°C° 0 mm 3 m/S 746 mmHg 56%
    01:00 +4°C° 0 mm 3 m/S 746 mmHg 58%
    02:00 +4°C° 0 mm 3 m/S 746 mmHg 60%
    03:00 +4°C° 0 mm 3 m/S 746 mmHg 61%
    04:00 +3°C° 0 mm 3 m/S 746 mmHg 62%
    05:00 +4°C° 0 mm 3 m/S 747 mmHg 61%
    06:00 +5°C° 0 mm 3 m/S 747 mmHg 60%
    07:00 +5°C° 0 mm 3 m/S 747 mmHg 59%
    08:00 +8°C° 0 mm 3 m/S 747 mmHg 54%
    09:00 +8°C° 0 mm 4 m/S 747 mmHg 48%
    10:00 +11°C° 0 mm 4 m/S 747 mmHg 43%
    11:00 +12°C° 0 mm 4 m/S 747 mmHg 41%
    12:00 +12°C° 0 mm 3 m/S 746 mmHg 40%
    13:00 +13°C° 0 mm 3 m/S 746 mmHg 38%
    14:00 +13°C° 0 mm 3 m/S 746 mmHg 38%
    15:00 +13°C° 0 mm 3 m/S 746 mmHg 38%
    16:00 +13°C° 0 mm 3 m/S 746 mmHg 39%
    17:00 +11°C° 0 mm 3 m/S 746 mmHg 43%
    18:00 +10°C° 0 mm 3 m/S 746 mmHg 48%
    19:00 +8°C° 0 mm 3 m/S 747 mmHg 52%
    20:00 +8°C° 0 mm 3 m/S 747 mmHg 55%
    21:00 +7°C° 0 mm 3 m/S 747 mmHg 57%
    22:00 +7°C° 0 mm 3 m/S 748 mmHg 60%
    23:00 +7°C° 0 mm 3 m/S 748 mmHg 61%
    Mehr zeigen